sat.trackr.live / text

‹ back to catalog

ONEWEB-0038

NORAD 45145 · 2020-008Q

PAYLOAD ACTIVE UNKNOWN

§ Identity

Operator
Country
UK
Launch date
2020-02-06
Launch site
TYMSC
Launch vehicle
Mass (kg)
RCS (m²)

Purposes: comms

External: N2YO · Heavens-Above · Gunter

§ Orbital elements

Epoch: 2026-09-20T01:58:09.832800Z

Period
109.80 min
Inclination
87.8981°
Eccentricity
0.0002685
Mean motion
13.11417710 rev/d
Perigee alt
1,215.6 km
Apogee alt
1,219.7 km
Semi-major
7,595.8 km
B*
-1.2917e-3
RAAN
2.2248°
Arg perigee
63.9063°
Mean anomaly
296.2341°
Rev number
32,276

§ Raw data

ONEWEB-00381 45145U 20008Q   26263.08205825 -.00000445  00000+0 -12917-2 0  99942 45145  87.8981   2.2248 0002685  63.9063 296.2341 13.11417710322761

JSON: /api/v1/satellites/45145 · /tle

For live sub-satellite position, see the globe view (requires WebGL).

§ Visibility from observer

Set your observer location to see the next 7 days of passes ≥ 10°. The values pass through the URL so the page stays shareable.

No JS? Fill the form by hand. The geolocation button needs JavaScript.